Location: Cactus School
(34.5700°N, 118.0931°W)
Time: 09:15:18
(UTC-07:00)

S-56A Canister/Altair - Pass Details

Date: 20 April 2024
Orbit: 638 x 2488 km, 38.9° (Epoch: 29 May)

Event Time Altitude Azimuth Distance (km) Brightness Sun altitude
Rises 15:39:02 0° 212° (SSW) 2,917 11.0 45.7°
Reaches altitude 10° 15:41:29 10° 199° (SSW) 2,050 10.3 45.3°
Maximum altitude 15:45:20 27° 141° (SE) 1,375 9.0 44.5°
Drops below altitude 10° 15:49:56 10° 85° (E) 2,481 9.8 43.6°
Sets 15:53:13 0° 74° (ENE) 3,681 10.6 43.0°
